GPS BIIF-9

Last updated on Fri Sep 11 2026 00:02:47 GMT+0000 (Coordinated Universal Time)

1 40534U 15013A 26253.81668151 -.00000019 00000+0 00000+0 0 9999 2 40534 53.1574 200.6387 0112769 41.0536 319.7528 2.00571178 83540
UTC large
Height (km)
Speed (km/s)
/
Latitude / Longitude
Inclination (degrees)
Orbital Period (minutes)
Azimuth
Elevation
Range (km)
Doppler Factor

Next 0 passes for location: London (51.5072 / 0.1276)

No passes found over London.
GPS BIIF-9